Weather History for Lakeview AWS, OR

Change the Weather History Date:

Saturday, March 30, 2013

  Actual Average Record
Temperature  
Mean Temperature 51 °F -  
Max Temperature 69 °F 51 °F 72 °F (1966)
Min Temperature 33 °F 27 °F 10 °F (1938)
Degree Days  
Heating Degree Days 14    
Growing Degree Days 1 (Base 50)    
Moisture  
Dew Point 30 °F    
Average Humidity 48    
Maximum Humidity 87    
Minimum Humidity 17    
Precipitation  
Precipitation 0.00 in - - ()
Sea Level Pressure  
Sea Level Pressure 30.14 in    
Wind  
Wind Speed 8 mph (NNE)    
Max Wind Speed 18 mph    
Max Gust Speed 20 mph    
Visibility 10 miles    
Events      
Averages and records for this station are not official NWS values.
T = Trace of Precipitation, MM = Missing Value Source: NWS Daily Summary

Daily Weather History Graph

Daily Weather History Graph

Search for Another Location

Airport:

Trip Planner

Search our weather history database for the weather conditions in past years. The results will help you decide how hot, cold, wet, or windy it might be!

Date:

Astronomy

Mar. 30, 2013 Rise Set
Actual Time 6:47 AM PDT 7:25 PM PDT
Civil Twilight 6:18 AM PDT 7:53 PM PDT
Nautical Twilight 5:45 AM PDT 8:27 PM PDT
Astronomical Twilight 5:11 AM PDT 9:01 PM PDT
Moon 11:42 PM PDT 8:42 AM PDT
Length of Visible Light 13h 34m
Length of Day
12h 38m
Waning Gibbous, 85% of the Moon is Illuminated
Mar 30
Waning Gibbous
Apr 2
Last Quarter
Apr 10
New
Apr 18
First Quarter
Apr 25
Full

Hourly Weather History & Observations

Time (PDT) Temp. Windchill Dew Point Humidity Pressure Visibility Wind Dir Wind Speed Gust Speed Precip Events Conditions
12:15 AM 37.4 °F 30.3 °F 30.2 °F 75% 30.20 in 10.0 mi NNW 10.4 mph - N/A   Clear
12:35 AM 39.2 °F 31.6 °F 32.0 °F 75% 30.20 in 10.0 mi NNW 12.7 mph - N/A   Clear
12:55 AM 39.2 °F 31.6 °F 32.0 °F 75% 30.20 in 10.0 mi NNW 12.7 mph - N/A   Clear
1:15 AM 37.4 °F 30.3 °F 32.0 °F 81% 30.21 in 10.0 mi NNW 10.4 mph - N/A   Clear
1:35 AM 37.4 °F - 30.2 °F 75% 30.21 in 10.0 mi Calm Calm - N/A   Clear
1:55 AM 35.6 °F 30.7 °F 30.2 °F 81% 30.21 in 10.0 mi NNW 5.8 mph - N/A   Clear
2:15 AM 33.8 °F - 28.4 °F 81% 30.21 in 10.0 mi Calm Calm - N/A   Clear
2:35 AM 33.8 °F 27.7 °F 30.2 °F 87% 30.21 in 10.0 mi NNW 6.9 mph - N/A   Clear
2:55 AM 35.6 °F 29.2 °F 30.2 °F 81% 30.21 in 10.0 mi North 8.1 mph - N/A   Clear
3:15 AM 35.6 °F 30.7 °F 30.2 °F 81% 30.20 in 10.0 mi NW 5.8 mph - N/A   Clear
3:35 AM 35.6 °F 27.5 °F 32.0 °F 87% 30.20 in 10.0 mi NNW 11.5 mph - N/A   Clear
3:55 AM 35.6 °F 27.5 °F 30.2 °F 81% 30.20 in 10.0 mi NNW 11.5 mph - N/A   Clear
4:15 AM 35.6 °F 30.7 °F 30.2 °F 81% 30.20 in 10.0 mi North 5.8 mph - N/A   Clear
4:35 AM 35.6 °F 27.5 °F 30.2 °F 81% 30.19 in 10.0 mi NNW 11.5 mph - N/A   Clear
4:55 AM 35.6 °F 28.6 °F 30.2 °F 81% 30.19 in 10.0 mi NNW 9.2 mph - N/A   Clear
5:15 AM 35.6 °F 29.2 °F 30.2 °F 81% 30.19 in 10.0 mi NNW 8.1 mph - N/A   Clear
5:35 AM 35.6 °F 30.7 °F 30.2 °F 81% 30.19 in 10.0 mi North 5.8 mph - N/A   Clear
5:55 AM 35.6 °F 28.6 °F 30.2 °F 81% 30.19 in 10.0 mi NNW 9.2 mph - N/A   Clear
6:15 AM 37.4 °F 29.8 °F 32.0 °F 81% 30.19 in 10.0 mi NNW 11.5 mph - N/A   Clear
6:35 AM 37.4 °F 30.3 °F 32.0 °F 81% 30.19 in 10.0 mi NNW 10.4 mph - N/A   Clear
6:55 AM 35.6 °F 28.6 °F 30.2 °F 81% 30.19 in 10.0 mi NNW 9.2 mph - N/A   Clear
7:15 AM 37.4 °F 30.3 °F 32.0 °F 81% 30.20 in 10.0 mi NNW 10.4 mph - N/A   Clear
7:35 AM 39.2 °F - 32.0 °F 75% 30.20 in 10.0 mi Calm Calm - N/A   Clear
7:55 AM 46.4 °F 43.5 °F 35.6 °F 66% 30.21 in 10.0 mi NW 5.8 mph - N/A   Clear
8:15 AM 48.2 °F - 35.6 °F 62% 30.21 in 10.0 mi NW 5.8 mph - N/A   Clear
8:35 AM 51.8 °F - 35.6 °F 54% 30.21 in 10.0 mi NNW 9.2 mph - N/A   Clear
8:55 AM 53.6 °F - 35.6 °F 51% 30.20 in 10.0 mi NNE 9.2 mph - N/A   Clear
9:15 AM 57.2 °F - 33.8 °F 41% 30.20 in 10.0 mi North 9.2 mph - N/A   Clear
9:35 AM 57.2 °F - 33.8 °F 41% 30.20 in 10.0 mi SSE 6.9 mph - N/A   Clear
9:55 AM 57.2 °F - 35.6 °F 44% 30.20 in 10.0 mi ESE 15.0 mph - N/A   Clear
10:15 AM 60.8 °F - 33.8 °F 36% 30.20 in 10.0 mi SE 13.8 mph - N/A   Clear
10:35 AM 62.6 °F - 32.0 °F 32% 30.20 in 10.0 mi ENE 6.9 mph 17.3 mph N/A   Clear
10:55 AM 62.6 °F - 33.8 °F 34% 30.19 in 10.0 mi ESE 11.5 mph - N/A   Clear
11:15 AM 62.6 °F - 28.4 °F 27% 30.19 in 10.0 mi ENE 5.8 mph - N/A   Clear
11:35 AM 64.4 °F - 32.0 °F 30% 30.19 in 10.0 mi SE 4.6 mph - N/A   Clear
11:55 AM 64.4 °F - 30.2 °F 28% 30.19 in 10.0 mi SE 5.8 mph - N/A   Clear
12:15 PM 64.4 °F - 30.2 °F 28% 30.19 in 10.0 mi ESE 3.5 mph - N/A   Clear
12:35 PM 64.4 °F - 28.4 °F 26% 30.18 in 8.0 mi ESE 3.5 mph - N/A   Clear
12:55 PM 66.2 °F - 28.4 °F 24% 30.17 in 10.0 mi SE 5.8 mph - N/A   Clear
1:15 PM 68.0 °F - 30.2 °F 24% 30.17 in 10.0 mi ESE 9.2 mph - N/A   Clear
1:35 PM 69.8 °F - 30.2 °F 23% 30.16 in 10.0 mi NNE 6.9 mph - N/A   Clear
1:55 PM 69.8 °F - 26.6 °F 20% 30.15 in 10.0 mi North 5.8 mph - N/A   Clear
2:15 PM 66.2 °F - 26.6 °F 23% 30.15 in 10.0 mi NE 4.6 mph - N/A   Clear
2:35 PM 68.0 °F - 26.6 °F 21% 30.14 in 10.0 mi East 5.8 mph - N/A   Clear
2:55 PM 69.8 °F - 24.8 °F 18% 30.13 in 10.0 mi ENE 9.2 mph - N/A   Clear
3:15 PM 69.8 °F - 23.0 °F 17% 30.12 in 10.0 mi ESE 5.8 mph - N/A   Clear
3:35 PM 69.8 °F - 23.0 °F 17% 30.11 in 10.0 mi East 10.4 mph - N/A   Partly Cloudy
3:55 PM 69.8 °F - 23.0 °F 17% 30.10 in 10.0 mi NNE 8.1 mph - N/A   Partly Cloudy
4:15 PM 69.8 °F - 24.8 °F 18% 30.10 in 10.0 mi East 9.2 mph - N/A   Clear
4:35 PM 69.8 °F - 24.8 °F 18% 30.09 in 10.0 mi South 3.5 mph - N/A   Clear
4:55 PM 69.8 °F - 24.8 °F 18% 30.08 in 10.0 mi North 8.1 mph - N/A   Mostly Cloudy
5:15 PM 69.8 °F - 26.6 °F 20% 30.08 in 10.0 mi East 10.4 mph - N/A   Overcast
5:35 PM 66.2 °F - 24.8 °F 21% 30.07 in 10.0 mi ENE 6.9 mph - N/A   Scattered Clouds
5:55 PM 64.4 °F - 30.2 °F 28% 30.07 in 10.0 mi ESE 3.5 mph - N/A   Clear
6:15 PM 64.4 °F - 33.8 °F 32% 30.07 in 10.0 mi Calm Calm - N/A   Clear
6:35 PM 64.4 °F - 33.8 °F 32% 30.06 in 10.0 mi Calm Calm - N/A   Clear
6:55 PM 64.4 °F - 32.0 °F 30% 30.06 in 10.0 mi Calm Calm - N/A   Clear
7:15 PM 57.2 °F - 35.6 °F 44% 30.06 in 10.0 mi NE 4.6 mph - N/A   Partly Cloudy
7:35 PM 53.6 °F - 32.0 °F 44% 30.06 in 10.0 mi East 4.6 mph - N/A   Partly Cloudy
7:55 PM 53.6 °F - 30.2 °F 41% 30.05 in 10.0 mi NE 4.6 mph - N/A   Partly Cloudy
8:15 PM 48.2 °F - 33.8 °F 58% 30.06 in 10.0 mi Calm Calm - N/A   Mostly Cloudy
8:35 PM 51.8 °F - 30.2 °F 44% 30.06 in 10.0 mi NE 6.9 mph - N/A   Mostly Cloudy
8:55 PM 53.6 °F - 28.4 °F 38% 30.06 in 10.0 mi ENE 9.2 mph - N/A   Partly Cloudy
9:15 PM 53.6 °F - 28.4 °F 38% 30.06 in 10.0 mi NNE 8.1 mph - N/A   Clear
9:35 PM 55.4 °F - 26.6 °F 33% 30.05 in 10.0 mi ENE 15.0 mph 19.6 mph N/A   Clear
9:55 PM 57.2 °F - 24.8 °F 29% 30.05 in 10.0 mi ENE 18.4 mph - N/A   Clear
10:15 PM 57.2 °F - 23.0 °F 27% 30.05 in 10.0 mi ENE 13.8 mph - N/A   Clear
10:35 PM 55.4 °F - 23.0 °F 29% 30.05 in 10.0 mi NE 10.4 mph 17.3 mph N/A   Clear
10:55 PM 53.6 °F - 23.0 °F 30% 30.05 in 10.0 mi NNW 6.9 mph - N/A   Clear
11:15 PM 51.8 °F - 24.8 °F 35% 30.05 in 10.0 mi NW 10.4 mph - N/A   Clear
11:35 PM 51.8 °F - 24.8 °F 35% 30.05 in 10.0 mi WNW 11.5 mph - N/A   Clear
11:55 PM 51.8 °F - 24.8 °F 35% 30.05 in 10.0 mi NW 4.6 mph - N/A   Clear